M I D A S
Marine Information and Data Acquisition System
Tripno 1868 of the Zeeleeuw from 2010-04-26 10:11:46 to 2010-04-26 14:43:17
Back to CruiseResearch ActivitiesStationsMapUnderway DataData graphs

EquipmentUnitsComments
TimeDGPSUTC
LatitudeDGPSDM.mWGS84
LongitudeDGPSDM.mWGS84
SpeedMeteo Stationm/sRelative wind speed
DirectionMeteo StationdegRelative wind direction
TemperatureMeteo Stationdeg CelciusAir temperature
PressureMeteo StationPaAtmospheric pressure
HumidityMeteo Station%Relative humidity
Missing or incorrect values are displayed as -999
Metereological data collected by the RV Zeeleeuw from 2010-04-26 07:09:07 to 2010-04-26 15:02:00
                                                                                    Next 1000 lines
Time Latitude Longitude Speed Direction Temperature Pressure Humidity
2010-04-26 07:09:16 51°13.661 2°55.952 7.2 37 10.8 102450 39
2010-04-26 07:09:21 51°13.662 2°55.947 6.7 25 10.8 102450 40
2010-04-26 07:09:27 51°13.664 2°55.94 4.9 42 10.8 102450 40
2010-04-26 07:09:32 51°13.666 2°55.933 4.7 42 10.8 102450 42
2010-04-26 07:09:38 51°13.668 2°55.924 5.7 31 10.8 102450 42
2010-04-26 07:09:44 51°13.671 2°55.914 4.7 44 10.8 102450 42
2010-04-26 07:09:49 51°13.673 2°55.905 5.8 33 10.8 102450 42
2010-04-26 07:09:55 51°13.675 2°55.894 5.6 22 10.8 102450 40
2010-04-26 07:10:00 51°13.677 2°55.884 5.4 34 10.8 102450 40
2010-04-26 07:10:05 51°13.679 2°55.875 6.5 23 10.8 102450 40
2010-04-26 07:10:10 51°13.681 2°55.866 5.4 33 10.8 102450 40
2010-04-26 07:10:15 51°13.683 2°55.857 6.2 26 10.8 102450 42
2010-04-26 07:10:20 51°13.684 2°55.848 8.2 34 10.8 102450 42
2010-04-26 07:10:25 51°13.685 2°55.839 6.8 41 10.8 102450 38
2010-04-26 07:10:30 51°13.687 2°55.831 4.1 32 10.8 102450 38
2010-04-26 07:10:35 51°13.688 2°55.822 4.6 22 10.7 102450 41
2010-04-26 07:10:40 51°13.689 2°55.814 4.7 33 10.7 102450 41
2010-04-26 07:10:45 51°13.69 2°55.806 4.3 23 10.8 102440 40
2010-04-26 07:10:50 51°13.691 2°55.798 3.6 32 10.8 102440 40
2010-04-26 07:10:55 51°13.691 2°55.791 4 24 10.8 102440 41
2010-04-26 07:11:00 51°13.692 2°55.783 3.1 33 10.8 102440 41
2010-04-26 07:11:05 51°13.692 2°55.776 2.9 20 10.8 102450 39
2010-04-26 07:11:10 51°13.693 2°55.77 2.6 39 10.8 102450 39
2010-04-26 07:11:15 51°13.693 2°55.766 1.9 25 10.8 102450 39
2010-04-26 07:11:20 51°13.693 2°55.764 2.5 33 10.8 102450 39
2010-04-26 07:11:25 51°13.693 2°55.762 2.7 22 10.8 102450 39
2010-04-26 07:11:29 51°13.694 2°55.762 5.2 40 10.8 102450 39
2010-04-26 07:11:35 51°13.694 2°55.763 5.1 29 10.8 102450 41
2010-04-26 07:11:40 51°13.695 2°55.764 4.3 37 10.8 102450 41
2010-04-26 07:11:45 51°13.695 2°55.765 3.8 74 10.8 102450 40
2010-04-26 07:11:50 51°13.696 2°55.766 2.9 33 10.8 102450 40
2010-04-26 07:11:55 51°13.697 2°55.767 2.7 22 10.9 102460 39
2010-04-26 07:12:00 51°13.697 2°55.768 3.7 40 10.9 102460 39
2010-04-26 07:12:05 51°13.698 2°55.768 4.2 23 10.8 102460 39
2010-04-26 07:12:10 51°13.697 2°55.768 3.4 33 10.8 102460 39
2010-04-26 07:12:15 51°13.696 2°55.766 2.8 28 10.8 102460 43
2010-04-26 07:12:20 51°13.695 2°55.764 3.5 33 10.8 102460 43
2010-04-26 07:12:25 51°13.693 2°55.762 4.9 23 10.8 102450 43
2010-04-26 07:12:30 51°13.691 2°55.759 4.3 31 10.8 102450 43
2010-04-26 07:12:35 51°13.689 2°55.757 4.8 26 10.9 102450 42
2010-04-26 07:12:40 51°13.688 2°55.756 3.4 267 10.9 102450 42
2010-04-26 07:12:45 51°13.688 2°55.756 3.5 267 10.9 102450 39
2010-04-26 07:12:50 51°13.689 2°55.756 2.9 33 10.9 102450 39
2010-04-26 07:12:55 51°13.69 2°55.758 1.8 265 10.9 102450 43
2010-04-26 07:13:00 51°13.692 2°55.758 1.7 268 10.9 102450 43
2010-04-26 07:13:05 51°13.694 2°55.759 1.8 258 10.9 102450 38
2010-04-26 07:13:10 51°13.697 2°55.759 2.3 245 10.9 102450 38
2010-04-26 07:13:15 51°13.7 2°55.759 2.6 253 10.9 102450 39
2010-04-26 07:13:20 51°13.704 2°55.758 3.8 250 10.9 102450 39
2010-04-26 07:13:25 51°13.708 2°55.757 3.7 251 10.9 102450 38
2010-04-26 07:13:30 51°13.712 2°55.755 5.1 247 10.9 102450 38
2010-04-26 07:13:35 51°13.716 2°55.752 5.4 246 10.9 102450 38
2010-04-26 07:13:40 51°13.719 2°55.748 3.2 326 10.9 102450 38
2010-04-26 07:13:45 51°13.723 2°55.745 2.9 19 10.9 102450 39
2010-04-26 07:13:50 51°13.727 2°55.741 4.4 328 10.9 102450 39
2010-04-26 07:13:55 51°13.731 2°55.737 3.4 322 11 102450 42
2010-04-26 07:14:00 51°13.735 2°55.733 4.9 31 11 102450 42
2010-04-26 07:14:05 51°13.739 2°55.728 5.7 26 11 102450 43
2010-04-26 07:14:10 51°13.744 2°55.724 7.2 235 11 102450 43
2010-04-26 07:14:15 51°13.748 2°55.719 7.6 26 11 102450 42
2010-04-26 07:14:20 51°13.753 2°55.715 6.1 32 11 102450 42
2010-04-26 07:14:25 51°13.758 2°55.709 7.9 21 11 102440 43
2010-04-26 07:14:29 51°13.763 2°55.705 8.4 241 11 102440 43
2010-04-26 07:14:34 51°13.769 2°55.699 7.4 22 11 102430 41
2010-04-26 07:14:39 51°13.775 2°55.693 4.1 315 11 102430 41
2010-04-26 07:14:45 51°13.783 2°55.685 6.6 22 11 102450 40
2010-04-26 07:14:49 51°13.789 2°55.68 6.5 39 11 102450 40
2010-04-26 07:14:55 51°13.797 2°55.671 4.9 26 11 102460 42
2010-04-26 07:15:00 51°13.804 2°55.664 4.8 243 11 102460 42
2010-04-26 07:15:05 51°13.812 2°55.657 3.7 21 11 102470 42
2010-04-26 07:15:10 51°13.819 2°55.65 4.6 315 11 102470 42
2010-04-26 07:15:15 51°13.826 2°55.643 4.3 22 11 102440 39
2010-04-26 07:15:20 51°13.833 2°55.636 4.4 34 11 102440 39
2010-04-26 07:15:25 51°13.84 2°55.629 4.8 315 11 102450 42
2010-04-26 07:15:30 51°13.847 2°55.622 4.2 326 11 102450 42
2010-04-26 07:15:35 51°13.854 2°55.616 4.2 331 11 102450 42
2010-04-26 07:15:40 51°13.861 2°55.609 6 35 11 102450 42
2010-04-26 07:15:45 51°13.867 2°55.603 4.9 317 11 102450 39
2010-04-26 07:15:50 51°13.874 2°55.596 4.1 236 11 102450 39
2010-04-26 07:15:55 51°13.88 2°55.59 5.6 20 11 102450 42
2010-04-26 07:16:00 51°13.886 2°55.584 5.1 247 11 102450 42
2010-04-26 07:16:05 51°13.891 2°55.578 3.9 20 11 102440 42
2010-04-26 07:16:09 51°13.896 2°55.573 1.7 34 11 102440 42
2010-04-26 07:16:15 51°13.903 2°55.566 1.3 342 11 102450 41
2010-04-26 07:16:20 51°13.908 2°55.561 1 233 11 102450 41
2010-04-26 07:16:25 51°13.914 2°55.555 0.7 20 11 102450 39
2010-04-26 07:16:30 51°13.919 2°55.55 4.2 31 11 102450 39
2010-04-26 07:16:35 51°13.924 2°55.545 3.3 324 11 102460 39
2010-04-26 07:16:40 51°13.929 2°55.54 4.6 315 11 102460 39
2010-04-26 07:16:45 51°13.934 2°55.535 4.5 23 11 102450 41
2010-04-26 07:16:49 51°13.938 2°55.531 8.7 31 11 102450 41
2010-04-26 07:16:54 51°13.943 2°55.526 6.6 24 11 102450 39
2010-04-26 07:16:59 51°13.947 2°55.522 6.7 34 11 102450 39
2010-04-26 07:17:04 51°13.951 2°55.517 5.2 26 11.1 102450 39
2010-04-26 07:17:09 51°13.956 2°55.512 6.9 246 11.1 102450 39
2010-04-26 07:17:13 51°13.959 2°55.508 5 22 11.1 102450 42
2010-04-26 07:17:18 51°13.963 2°55.503 7.8 237 11.1 102450 42
2010-04-26 07:17:23 51°13.967 2°55.498 8.5 23 11.1 102450 41
2010-04-26 07:17:28 51°13.971 2°55.493 6.5 238 11.1 102450 41
2010-04-26 07:17:33 51°13.975 2°55.488 7.3 249 11.1 102450 43
2010-04-26 07:17:37 51°13.978 2°55.484 3.1 319 11.1 102450 43
2010-04-26 07:17:42 51°13.981 2°55.479 2.2 266 11 102460 42
2010-04-26 07:17:47 51°13.985 2°55.475 1 241 11 102460 42
2010-04-26 07:17:52 51°13.988 2°55.471 0.8 22 11 102470 40
2010-04-26 07:17:57 51°13.99 2°55.467 2.5 255 11 102470 40
2010-04-26 07:18:02 51°13.993 2°55.464 1.4 269 11 102470 39
2010-04-26 07:18:07 51°13.995 2°55.461 1 344 11 102470 39
2010-04-26 07:18:12 51°13.996 2°55.459 0.7 357 11 102460 41
2010-04-26 07:18:17 51°13.997 2°55.458 0.2 234 11 102460 41
2010-04-26 07:18:21 51°13.998 2°55.458 3.6 268 11 102450 39
2010-04-26 07:18:27 51°13.998 2°55.457 0.8 269 11 102450 39
2010-04-26 07:18:31 51°13.999 2°55.456 0.3 258 11.1 102450 40
2010-04-26 07:18:37 51°14 2°55.455 4.5 235 11.1 102450 40
2010-04-26 07:18:41 51°14 2°55.455 4 23 11 102450 40
2010-04-26 07:18:47 51°14.001 2°55.454 3.4 35 11 102450 40
2010-04-26 07:18:51 51°14.002 2°55.454 2.8 246 11 102450 38
2010-04-26 07:18:57 51°14.003 2°55.453 3.1 238 11 102450 38
2010-04-26 07:19:01 51°14.003 2°55.453 2.4 255 11 102460 42
2010-04-26 07:19:06 51°14.004 2°55.452 2.7 31 11 102460 42
2010-04-26 07:19:11 51°14.004 2°55.453 0.8 30 11 102460 39
2010-04-26 07:19:17 51°14.003 2°55.452 2.5 241 11 102460 39
2010-04-26 07:19:21 51°14.003 2°55.452 3.3 22 11.1 102460 42
2010-04-26 07:19:26 51°14.003 2°55.452 3.4 265 11.1 102460 42
2010-04-26 07:19:32 51°14.003 2°55.452 2.3 258 11 102460 41
2010-04-26 07:19:37 51°14.003 2°55.452 2.9 256 11 102460 41
2010-04-26 07:19:41 51°14.003 2°55.452 3.2 26 11 102450 42
2010-04-26 07:19:46 51°14.003 2°55.452 3.2 253 11 102450 42
2010-04-26 07:19:51 51°14.003 2°55.452 3.9 250 11 102450 43
2010-04-26 07:19:57 51°14.003 2°55.452 3.9 247 11 102450 43
2010-04-26 07:20:01 51°14.003 2°55.451 2.6 320 11 102460 39
2010-04-26 07:20:06 51°14.003 2°55.451 7.5 263 11 102460 39
2010-04-26 07:20:11 51°14.003 2°55.451 5 20 11 102460 42
2010-04-26 07:20:17 51°14.003 2°55.451 3.5 256 11 102460 42
2010-04-26 07:20:21 51°14.004 2°55.451 5.6 251 11 102460 39
2010-04-26 07:20:26 51°14.004 2°55.451 4.1 250 11 102460 39
2010-04-26 07:20:31 51°14.004 2°55.451 3.2 21 11 102450 39
2010-04-26 07:20:37 51°14.004 2°55.451 2 267 11 102450 39
2010-04-26 07:20:41 51°14.004 2°55.451 6.6 269 11 102460 39
2010-04-26 07:20:46 51°14.004 2°55.451 4.2 38 11 102460 39
2010-04-26 07:20:51 51°14.004 2°55.452 3.1 20 11 102460 42
2010-04-26 07:20:57 51°14.005 2°55.452 1.9 249 11 102460 42
2010-04-26 07:21:01 51°14.005 2°55.452 2.6 264 11 102460 39
2010-04-26 07:21:07 51°14.005 2°55.452 2.5 261 11 102460 39
2010-04-26 07:21:11 51°14.005 2°55.452 2.3 260 11 102460 44
2010-04-26 07:21:17 51°14.005 2°55.452 2.4 238 11 102460 44
2010-04-26 07:21:21 51°14.005 2°55.451 2.5 257 11 102470 39
2010-04-26 07:21:26 51°14.005 2°55.451 0.2 268 11 102470 39
2010-04-26 07:21:32 51°14.005 2°55.451 0.1 29 11 102460 38
2010-04-26 07:21:37 51°14.005 2°55.451 0.1 315 11 102460 38
2010-04-26 07:21:41 51°14.005 2°55.451 -999 319 11 102460 43
2010-04-26 07:21:46 51°14.005 2°55.451 0.1 39 11 102460 43
2010-04-26 07:21:51 51°14.005 2°55.451 5.1 258 11 102470 40
2010-04-26 07:21:57 51°14.005 2°55.451 6.3 254 11 102470 40
2010-04-26 07:22:01 51°14.005 2°55.451 6.2 252 11 102460 38
2010-04-26 07:22:06 51°14.005 2°55.451 5 246 11 102460 38
2010-04-26 07:22:11 51°14.005 2°55.451 4 24 11 102460 43
2010-04-26 07:22:16 51°14.005 2°55.451 4.4 255 11 102460 43
2010-04-26 07:22:21 51°14.005 2°55.451 4 256 11 102460 41
2010-04-26 07:22:26 51°14.004 2°55.451 2.1 261 11 102460 41
2010-04-26 07:22:31 51°14.004 2°55.451 1.8 253 11 102470 41
2010-04-26 07:22:37 51°14.004 2°55.451 3.6 241 11 102470 41
2010-04-26 07:22:41 51°14.005 2°55.451 6.4 254 11 102470 42
2010-04-26 07:22:46 51°14.004 2°55.451 2.8 30 11 102470 42
2010-04-26 07:22:51 51°14.004 2°55.451 2 26 11 102460 38
2010-04-26 07:22:57 51°14.005 2°55.451 2.5 259 11 102460 38
2010-04-26 07:23:01 51°14.005 2°55.451 3.9 255 10.9 102460 41
2010-04-26 07:23:06 51°14.005 2°55.451 3.2 251 10.9 102460 41
2010-04-26 07:23:11 51°14.005 2°55.452 2.1 255 10.9 102460 42
2010-04-26 07:23:17 51°14.005 2°55.452 0.2 260 10.9 102460 42
2010-04-26 07:23:21 51°14.005 2°55.453 3.6 253 10.9 102460 39
2010-04-26 07:23:26 51°14.005 2°55.453 5.1 252 10.9 102460 39
2010-04-26 07:23:32 51°14.005 2°55.453 3.5 266 10.9 102470 43
2010-04-26 07:23:37 51°14.005 2°55.452 1.7 239 10.9 102470 43
2010-04-26 07:23:41 51°14.005 2°55.452 2.1 257 10.9 102460 39
2010-04-26 07:23:46 51°14.004 2°55.451 3.8 244 10.9 102460 39
2010-04-26 07:23:52 51°14.004 2°55.451 5.3 242 10.9 102460 41
2010-04-26 07:23:57 51°14.004 2°55.451 4.8 236 10.9 102460 41
2010-04-26 07:24:01 51°14.004 2°55.451 2.8 23 10.9 102470 43
2010-04-26 07:24:06 51°14.004 2°55.45 7.7 255 10.9 102470 43
2010-04-26 07:24:11 51°14.004 2°55.451 5.3 257 10.9 102470 41
2010-04-26 07:24:17 51°14.004 2°55.451 3.4 254 10.9 102470 41
2010-04-26 07:24:21 51°14.004 2°55.451 4.6 21 10.9 102460 39
2010-04-26 07:24:26 51°14.004 2°55.451 3.7 270 10.9 102460 39
2010-04-26 07:24:31 51°14.004 2°55.45 3.4 260 10.9 102460 42
2010-04-26 07:24:37 51°14.004 2°55.45 3.8 252 10.9 102460 42
2010-04-26 07:24:41 51°14.004 2°55.449 8.2 20 10.9 102480 42
2010-04-26 07:24:46 51°14.004 2°55.449 6.5 240 10.9 102480 42
2010-04-26 07:24:51 51°14.003 2°55.449 5.5 23 10.9 102470 39
2010-04-26 07:24:57 51°14.003 2°55.449 3.5 249 10.9 102470 39
2010-04-26 07:25:01 51°14.003 2°55.449 5.3 251 10.8 102470 41
2010-04-26 07:25:06 51°14.003 2°55.449 2.3 264 10.8 102470 41
2010-04-26 07:25:11 51°14.003 2°55.448 2.7 268 10.8 102480 42
2010-04-26 07:25:17 51°14.003 2°55.448 2.9 253 10.8 102480 42
2010-04-26 07:25:21 51°14.003 2°55.449 3.5 250 10.8 102470 42
2010-04-26 07:25:27 51°14.003 2°55.449 3.1 240 10.8 102470 42
2010-04-26 07:25:31 51°14.003 2°55.449 3.3 24 10.8 102470 44
2010-04-26 07:25:37 51°14.003 2°55.449 2.7 261 10.8 102470 44
2010-04-26 07:25:41 51°14.003 2°55.45 2.3 257 10.8 102470 42
2010-04-26 07:25:46 51°14.003 2°55.45 1.5 268 10.8 102470 42
2010-04-26 07:25:52 51°14.003 2°55.45 1.3 25 10.8 102470 41
2010-04-26 07:25:57 51°14.003 2°55.45 4.5 250 10.8 102470 41
2010-04-26 07:26:01 51°14.003 2°55.45 2.3 261 10.8 102470 39
2010-04-26 07:26:06 51°14.003 2°55.45 2.6 258 10.8 102470 39
2010-04-26 07:26:11 51°14.003 2°55.45 2.7 252 10.8 102470 43
2010-04-26 07:26:17 51°14.003 2°55.45 6.6 265 10.8 102470 43
2010-04-26 07:26:21 51°14.004 2°55.45 4.2 252 10.8 102460 38
2010-04-26 07:26:26 51°14.004 2°55.45 5.4 242 10.8 102460 38
2010-04-26 07:26:31 51°14.003 2°55.45 6.2 21 10.8 102470 40
2010-04-26 07:26:37 51°14.003 2°55.45 3.9 251 10.8 102470 40
2010-04-26 07:26:41 51°14.003 2°55.45 3.4 25 10.8 102470 43
2010-04-26 07:26:46 51°14.003 2°55.45 4.6 245 10.8 102470 43
2010-04-26 07:26:51 51°14.003 2°55.45 4.6 28 10.8 102470 40
2010-04-26 07:26:57 51°14.003 2°55.45 3.7 250 10.8 102470 40
2010-04-26 07:27:01 51°14.003 2°55.45 4.2 28 10.8 102460 39
2010-04-26 07:27:06 51°14.004 2°55.45 4.5 242 10.8 102460 39
2010-04-26 07:27:11 51°14.004 2°55.45 5.2 27 10.7 102460 39
2010-04-26 07:27:17 51°14.004 2°55.45 2.9 250 10.7 102460 39
2010-04-26 07:27:21 51°14.004 2°55.451 4.4 22 10.7 102470 42
2010-04-26 07:27:26 51°14.004 2°55.451 3.2 242 10.7 102470 42
2010-04-26 07:27:31 51°14.004 2°55.452 5.4 247 10.7 102460 40
2010-04-26 07:27:37 51°14.004 2°55.452 3.9 244 10.7 102460 40
2010-04-26 07:27:41 51°14.004 2°55.452 3.8 257 10.7 102470 39
2010-04-26 07:27:47 51°14.004 2°55.452 3.8 259 10.7 102470 39
2010-04-26 07:27:51 51°14.004 2°55.452 3.7 270 10.7 102470 42
2010-04-26 07:27:57 51°14.004 2°55.451 1.3 31 10.7 102470 42
2010-04-26 07:28:01 51°14.004 2°55.451 2.9 264 10.7 102470 40
2010-04-26 07:28:06 51°14.004 2°55.451 3.9 256 10.7 102470 40
2010-04-26 07:28:11 51°14.004 2°55.45 4.8 247 10.7 102470 42
2010-04-26 07:28:17 51°14.004 2°55.451 3.4 268 10.7 102470 42
2010-04-26 07:28:21 51°14.004 2°55.451 5.7 252 10.7 102460 39
2010-04-26 07:28:26 51°14.004 2°55.45 4.2 232 10.7 102460 39
2010-04-26 07:28:32 51°14.004 2°55.45 4.5 243 10.7 102470 40
2010-04-26 07:28:37 51°14.004 2°55.45 5.7 239 10.7 102470 40
2010-04-26 07:28:41 51°14.004 2°55.451 5.7 22 10.7 102480 41
2010-04-26 07:28:46 51°14.004 2°55.451 3.4 247 10.7 102480 41
2010-04-26 07:28:51 51°14.004 2°55.451 4.1 261 10.6 102460 42
2010-04-26 07:28:57 51°14.004 2°55.451 7 252 10.6 102460 42
2010-04-26 07:29:01 51°14.004 2°55.451 8.5 251 10.6 102460 39
2010-04-26 07:29:06 51°14.004 2°55.451 4.2 249 10.6 102460 39
2010-04-26 07:29:11 51°14.004 2°55.451 3.4 21 10.6 102460 41
2010-04-26 07:29:17 51°14.004 2°55.451 1.5 35 10.6 102460 41
2010-04-26 07:29:21 51°14.004 2°55.451 2.3 23 10.6 102470 42
2010-04-26 07:29:26 51°14.004 2°55.451 3.9 235 10.6 102470 42
2010-04-26 07:29:31 51°14.004 2°55.451 2.2 21 10.6 102480 38
2010-04-26 07:29:37 51°14.004 2°55.451 4.5 267 10.6 102480 38
2010-04-26 07:29:41 51°14.004 2°55.451 3.9 259 10.6 102460 39
2010-04-26 07:29:47 51°14.004 2°55.451 5 246 10.6 102460 39
2010-04-26 07:29:51 51°14.004 2°55.451 6.6 249 10.5 102470 39
2010-04-26 07:29:57 51°14.004 2°55.451 4 248 10.5 102470 39
2010-04-26 07:30:01 51°14.004 2°55.451 6.7 28 10.5 102460 39
2010-04-26 07:30:06 51°14.004 2°55.451 4.7 246 10.5 102460 39
2010-04-26 07:30:11 51°14.004 2°55.451 3.6 251 10.5 102470 42
2010-04-26 07:30:17 51°14.004 2°55.451 3.7 32 10.5 102470 42
2010-04-26 07:30:21 51°14.004 2°55.451 5.2 248 10.5 102470 39
2010-04-26 07:30:25 51°14.004 2°55.451 3.9 253 10.5 102470 39
2010-04-26 07:30:32 51°14.004 2°55.451 2.6 251 10.5 102470 39
2010-04-26 07:30:37 51°14.004 2°55.451 2.1 241 10.5 102470 39
2010-04-26 07:30:41 51°14.005 2°55.451 2 248 10.5 102470 42
2010-04-26 07:30:46 51°14.005 2°55.451 3.4 263 10.5 102470 42
2010-04-26 07:30:52 51°14.005 2°55.451 4 248 10.4 102470 42
2010-04-26 07:30:57 51°14.005 2°55.451 3 242 10.4 102470 42
2010-04-26 07:31:01 51°14.005 2°55.451 2.5 21 10.4 102470 42
2010-04-26 07:31:06 51°14.004 2°55.451 2.8 232 10.4 102470 42
2010-04-26 07:31:11 51°14.004 2°55.451 3.7 24 10.4 102470 39
2010-04-26 07:31:17 51°14.004 2°55.451 3.2 249 10.4 102470 39
2010-04-26 07:31:21 51°14.004 2°55.451 2.5 257 10.4 102470 39
2010-04-26 07:31:26 51°14.004 2°55.451 4.4 33 10.4 102470 39
2010-04-26 07:31:31 51°14.004 2°55.451 3.7 25 10.4 102470 41
2010-04-26 07:31:37 51°14.004 2°55.451 5.3 268 10.4 102470 41
2010-04-26 07:31:41 51°14.004 2°55.451 7.7 254 10.3 102470 39
2010-04-26 07:31:47 51°14.004 2°55.451 5 240 10.3 102470 39
2010-04-26 07:31:51 51°14.004 2°55.451 6.2 259 10.3 102470 39
2010-04-26 07:31:57 51°14.004 2°55.451 3.2 236 10.3 102470 39
2010-04-26 07:32:01 51°14.004 2°55.451 4.2 24 10.3 102480 39
2010-04-26 07:32:06 51°14.004 2°55.451 3.2 250 10.3 102480 39
2010-04-26 07:32:11 51°14.004 2°55.451 3.4 23 10.3 102470 38
2010-04-26 07:32:17 51°14.004 2°55.451 3.6 251 10.3 102470 38
2010-04-26 07:32:21 51°14.004 2°55.451 3.2 21 10.2 102480 39
2010-04-26 07:32:27 51°14.004 2°55.451 2.1 258 10.2 102480 39
2010-04-26 07:32:31 51°14.004 2°55.451 2.7 254 10.2 102470 39
2010-04-26 07:32:37 51°14.004 2°55.451 1.2 250 10.2 102470 39
2010-04-26 07:32:41 51°14.004 2°55.451 0.3 26 10.2 102470 38
2010-04-26 07:32:46 51°14.004 2°55.451 4.5 244 10.2 102470 38
2010-04-26 07:32:52 51°14.004 2°55.451 5.1 22 10.2 102470 42
2010-04-26 07:32:57 51°14.004 2°55.451 4.2 243 10.2 102470 42
2010-04-26 07:33:01 51°14.004 2°55.451 4.3 20 10.2 102470 41
2010-04-26 07:33:06 51°14.004 2°55.451 6.3 246 10.2 102470 41
2010-04-26 07:33:11 51°14.004 2°55.451 6.2 247 10.2 102470 39
2010-04-26 07:33:17 51°14.004 2°55.451 6.3 252 10.2 102470 39
2010-04-26 07:33:21 51°14.004 2°55.451 5 267 10.1 102470 42
2010-04-26 07:33:27 51°14.005 2°55.451 4.7 249 10.1 102470 42
2010-04-26 07:33:31 51°14.005 2°55.451 4.4 254 10.1 102460 39
2010-04-26 07:33:36 51°14.005 2°55.451 2.6 262 10.1 102460 39
2010-04-26 07:33:41 51°14.005 2°55.452 5.3 260 10.1 102470 42
2010-04-26 07:33:46 51°14.005 2°55.452 3.7 256 10.1 102470 42
2010-04-26 07:33:51 51°14.005 2°55.452 4.7 255 10.1 102470 39
2010-04-26 07:33:57 51°14.005 2°55.452 5.1 240 10.1 102470 39
2010-04-26 07:34:01 51°14.005 2°55.452 4.1 21 10.1 102470 42
2010-04-26 07:34:06 51°14.005 2°55.452 3 243 10.1 102470 42
2010-04-26 07:34:12 51°14.005 2°55.452 4.3 257 10 102470 41
2010-04-26 07:34:17 51°14.005 2°55.452 1 37 10 102470 41
2010-04-26 07:34:21 51°14.005 2°55.452 2.9 261 10 102470 41
2010-04-26 07:34:26 51°14.005 2°55.452 2.8 263 10 102470 41
2010-04-26 07:34:31 51°14.005 2°55.452 3.3 250 10 102470 39
2010-04-26 07:34:37 51°14.005 2°55.452 1.7 28 10 102470 39
2010-04-26 07:34:41 51°14.005 2°55.452 2.7 25 10 102470 39
2010-04-26 07:34:46 51°14.005 2°55.452 5.3 261 10 102470 39
2010-04-26 07:34:51 51°14.005 2°55.452 3.4 254 10 102470 41
2010-04-26 07:34:57 51°14.005 2°55.452 3.7 253 10 102470 41
2010-04-26 07:35:01 51°14.005 2°55.452 2 269 10 102470 39
2010-04-26 07:35:06 51°14.005 2°55.452 2.5 38 10 102470 39
2010-04-26 07:35:12 51°14.005 2°55.452 2.7 270 10 102480 41
2010-04-26 07:35:17 51°14.005 2°55.452 4.6 255 10 102480 41
2010-04-26 07:35:21 51°14.005 2°55.452 5.9 255 10 102470 38
2010-04-26 07:35:26 51°14.005 2°55.452 2.3 253 10 102470 38
2010-04-26 07:35:32 51°14.005 2°55.452 5.3 256 10 102470 40
2010-04-26 07:35:37 51°14.005 2°55.452 4.9 251 10 102470 40
2010-04-26 07:35:41 51°14.005 2°55.452 4.1 259 10 102470 39
2010-04-26 07:35:46 51°14.005 2°55.452 3.3 39 10 102470 39
2010-04-26 07:35:51 51°14.005 2°55.452 3.6 267 10 102470 39
2010-04-26 07:35:57 51°14.005 2°55.452 2.5 265 10 102470 39
2010-04-26 07:36:01 51°14.005 2°55.452 1.9 247 10 102470 39
2010-04-26 07:36:06 51°14.005 2°55.452 1.7 36 10 102470 39
2010-04-26 07:36:11 51°14.005 2°55.452 2.7 29 10 102480 43
2010-04-26 07:36:17 51°14.005 2°55.452 2.3 33 10 102480 43
2010-04-26 07:36:21 51°14.005 2°55.452 2.4 17 9.9 102470 43
2010-04-26 07:36:26 51°14.005 2°55.452 3.2 244 9.9 102470 43
2010-04-26 07:36:31 51°14.005 2°55.452 4.5 255 9.9 102460 42
2010-04-26 07:36:37 51°14.005 2°55.452 3.7 35 9.9 102460 42
2010-04-26 07:36:41 51°14.005 2°55.452 1.8 267 9.9 102470 41
2010-04-26 07:36:47 51°14.005 2°55.452 2.5 263 9.9 102470 41
2010-04-26 07:36:51 51°14.005 2°55.452 1 268 9.9 102470 42
2010-04-26 07:36:57 51°14.005 2°55.452 0.6 257 9.9 102470 42
2010-04-26 07:37:01 51°14.005 2°55.452 1.2 31 9.9 102480 42
2010-04-26 07:37:06 51°14.005 2°55.452 0.1 263 9.9 102480 42
2010-04-26 07:37:12 51°14.005 2°55.451 2.2 250 9.9 102480 42
2010-04-26 07:37:17 51°14.005 2°55.452 3.4 262 9.9 102480 42
2010-04-26 07:37:21 51°14.005 2°55.452 4.6 25 9.9 102470 39
2010-04-26 07:37:26 51°14.005 2°55.452 3.4 30 9.9 102470 39
2010-04-26 07:37:31 51°14.005 2°55.452 1.7 21 9.9 102470 38
2010-04-26 07:37:37 51°14.005 2°55.452 0.2 252 9.9 102470 38
2010-04-26 07:37:41 51°14.005 2°55.452 3.3 260 9.9 102470 39
2010-04-26 07:37:46 51°14.005 2°55.452 3.6 257 9.9 102470 39
2010-04-26 07:37:51 51°14.004 2°55.452 1.5 256 9.9 102470 41
2010-04-26 07:37:56 51°14.005 2°55.452 0.3 323 9.9 102470 41
2010-04-26 07:38:01 51°14.005 2°55.452 0.2 325 9.9 102470 39
2010-04-26 07:38:06 51°14.005 2°55.451 0.1 252 9.9 102470 39
2010-04-26 07:38:11 51°14.005 2°55.452 2.6 244 9.9 102470 42
2010-04-26 07:38:17 51°14.004 2°55.451 2.2 236 9.9 102470 42
2010-04-26 07:38:21 51°14.004 2°55.452 2.5 26 9.8 102470 41
2010-04-26 07:38:26 51°14.004 2°55.452 2.9 36 9.8 102470 41
2010-04-26 07:38:31 51°14.004 2°55.452 1.9 254 9.9 102470 39
2010-04-26 07:38:37 51°14.004 2°55.452 3.6 264 9.9 102470 39
2010-04-26 07:38:41 51°14.004 2°55.452 3.9 268 9.9 102470 43
2010-04-26 07:38:47 51°14.004 2°55.451 4.3 253 9.9 102470 43
2010-04-26 07:38:52 51°14.004 2°55.451 3.5 22 9.9 102480 42
2010-04-26 07:38:57 51°14.004 2°55.451 7 239 9.9 102480 42
2010-04-26 07:39:01 51°14.004 2°55.451 6.6 22 9.9 102470 43
2010-04-26 07:39:07 51°14.004 2°55.451 7.1 31 9.9 102470 43
2010-04-26 07:39:11 51°14.004 2°55.451 5.9 26 9.9 102470 42
2010-04-26 07:39:17 51°14.004 2°55.451 4.9 251 9.9 102470 42
2010-04-26 07:39:21 51°14.004 2°55.451 3.3 254 9.9 102480 42
2010-04-26 07:39:26 51°14.004 2°55.451 3.3 243 9.9 102480 42
2010-04-26 07:39:31 51°14.004 2°55.451 3.7 28 9.9 102470 39
2010-04-26 07:39:37 51°14.004 2°55.451 2.2 263 9.9 102470 39
2010-04-26 07:39:41 51°14.004 2°55.452 1.8 20 9.8 102470 39
2010-04-26 07:39:46 51°14.004 2°55.452 3.5 259 9.8 102470 39
2010-04-26 07:39:51 51°14.004 2°55.452 5.3 255 9.8 102480 39
2010-04-26 07:39:57 51°14.004 2°55.452 1.9 270 9.8 102480 39
2010-04-26 07:40:01 51°14.004 2°55.452 3.8 256 9.8 102470 42
2010-04-26 07:40:06 51°14.004 2°55.452 4.1 237 9.8 102470 42
2010-04-26 07:40:11 51°14.004 2°55.452 3.7 258 9.8 102470 41
2010-04-26 07:40:17 51°14.004 2°55.452 2.8 268 9.8 102470 41
2010-04-26 07:40:21 51°14.004 2°55.452 6.1 253 9.8 102470 43
2010-04-26 07:40:26 51°14.004 2°55.452 2.7 32 9.8 102470 43
2010-04-26 07:40:31 51°14.004 2°55.452 3.2 21 9.8 102480 39
2010-04-26 07:40:37 51°14.005 2°55.452 2 249 9.8 102480 39
2010-04-26 07:40:41 51°14.004 2°55.452 1.1 257 9.8 102470 42
2010-04-26 07:40:46 51°14.004 2°55.452 0.4 243 9.8 102470 42
2010-04-26 07:40:51 51°14.004 2°55.452 0.4 260 9.8 102470 39
2010-04-26 07:40:57 51°14.004 2°55.452 2.1 253 9.8 102470 39
2010-04-26 07:41:01 51°14.004 2°55.452 2.2 25 9.8 102470 40
2010-04-26 07:41:07 51°14.004 2°55.452 2.6 247 9.8 102470 40
2010-04-26 07:41:11 51°14.004 2°55.452 2.3 250 9.8 102470 39
2010-04-26 07:41:17 51°14.004 2°55.452 2.5 241 9.8 102470 39
2010-04-26 07:41:21 51°14.004 2°55.452 3.1 245 9.8 102470 40
2010-04-26 07:41:26 51°14.004 2°55.452 0.7 253 9.8 102470 40
2010-04-26 07:41:31 51°14.004 2°55.452 2.4 26 9.8 102470 39
2010-04-26 07:41:37 51°14.004 2°55.452 1.7 246 9.8 102470 39
2010-04-26 07:41:41 51°14.004 2°55.452 1.5 264 9.8 102470 42
2010-04-26 07:41:45 51°14.004 2°55.452 3 248 9.8 102470 42
2010-04-26 07:41:51 51°14.004 2°55.452 3 251 9.8 102470 40
2010-04-26 07:41:57 51°14.004 2°55.452 2.8 262 9.8 102470 40
2010-04-26 07:42:01 51°14.004 2°55.452 2.8 253 9.8 102470 41
2010-04-26 07:42:06 51°14.004 2°55.452 3.6 241 9.8 102470 41
2010-04-26 07:42:11 51°14.004 2°55.452 3 262 9.8 102470 40
2010-04-26 07:42:16 51°14.004 2°55.452 2.5 40 9.8 102470 40
2010-04-26 07:42:21 51°14.004 2°55.452 2 245 9.8 102470 43
2010-04-26 07:42:26 51°14.004 2°55.452 0.2 270 9.8 102470 43
2010-04-26 07:42:31 51°14.004 2°55.452 0.1 40 9.8 102470 40
2010-04-26 07:42:37 51°14.004 2°55.452 0.4 36 9.8 102470 40
2010-04-26 07:42:41 51°14.004 2°55.452 2.1 264 9.8 102470 42
2010-04-26 07:42:46 51°14.004 2°55.452 3.3 245 9.8 102470 42
2010-04-26 07:42:51 51°14.004 2°55.453 2.8 256 9.8 102470 39
2010-04-26 07:42:57 51°14.004 2°55.453 2.4 261 9.8 102470 39
2010-04-26 07:43:01 51°14.004 2°55.453 2.1 259 9.8 102480 43
2010-04-26 07:43:07 51°14.004 2°55.453 3.6 260 9.8 102480 43
2010-04-26 07:43:11 51°14.004 2°55.453 2.7 259 9.8 102480 41
2010-04-26 07:43:17 51°14.004 2°55.453 2.5 250 9.8 102480 41
2010-04-26 07:43:21 51°14.004 2°55.453 2.3 23 9.8 102470 40
2010-04-26 07:43:26 51°14.004 2°55.453 3.8 247 9.8 102470 40
2010-04-26 07:43:31 51°14.004 2°55.453 3.5 22 9.8 102480 43
2010-04-26 07:43:37 51°14.005 2°55.453 2.6 232 9.8 102480 43
2010-04-26 07:43:41 51°14.005 2°55.453 1.2 265 9.8 102470 39
2010-04-26 07:43:46 51°14.004 2°55.453 2.3 254 9.8 102470 39
2010-04-26 07:43:51 51°14.004 2°55.453 2.7 18 9.8 102470 42
2010-04-26 07:43:57 51°14.004 2°55.453 4 41 9.8 102470 42
2010-04-26 07:44:01 51°14.004 2°55.453 2.4 26 9.8 102470 40
2010-04-26 07:44:06 51°14.004 2°55.453 5 34 9.8 102470 40
2010-04-26 07:44:11 51°14.004 2°55.453 4.3 246 9.8 102470 42
2010-04-26 07:44:17 51°14.004 2°55.452 5.8 249 9.8 102470 42
2010-04-26 07:44:21 51°14.004 2°55.452 5.4 259 9.8 102470 43
2010-04-26 07:44:26 51°14.004 2°55.452 1.6 246 9.8 102470 43
2010-04-26 07:44:31 51°14.004 2°55.452 4.3 253 9.8 102480 41
2010-04-26 07:44:37 51°14.004 2°55.452 3.2 250 9.8 102480 41
2010-04-26 07:44:41 51°14.004 2°55.452 3.2 20 9.8 102480 40
2010-04-26 07:44:46 51°14.004 2°55.452 1.2 30 9.8 102480 40
2010-04-26 07:44:51 51°14.004 2°55.452 2.7 252 9.8 102470 42
2010-04-26 07:44:57 51°14.004 2°55.452 1.5 246 9.8 102470 42
2010-04-26 07:45:01 51°14.004 2°55.452 1.7 26 9.8 102470 40
2010-04-26 07:45:06 51°14.004 2°55.452 4.8 254 9.8 102470 40
2010-04-26 07:45:11 51°14.004 2°55.452 4.7 254 9.8 102480 39
2010-04-26 07:45:17 51°14.004 2°55.452 6.1 249 9.8 102480 39
2010-04-26 07:45:21 51°14.004 2°55.452 6.4 249 9.8 102470 43
2010-04-26 07:45:26 51°14.004 2°55.452 3.7 248 9.8 102470 43
2010-04-26 07:45:32 51°14.004 2°55.452 4.3 19 9.8 102490 41
2010-04-26 07:45:37 51°14.005 2°55.452 3.2 241 9.8 102490 41
2010-04-26 07:45:41 51°14.005 2°55.452 2.8 23 9.8 102480 42
2010-04-26 07:45:46 51°14.005 2°55.452 3.7 249 9.8 102480 42
2010-04-26 07:45:52 51°14.005 2°55.453 3.8 23 9.8 102470 43
2010-04-26 07:45:57 51°14.005 2°55.453 8.6 253 9.8 102470 43
2010-04-26 07:46:01 51°14.005 2°55.452 5.8 257 9.7 102470 41
2010-04-26 07:46:06 51°14.005 2°55.452 2.1 37 9.7 102470 41
2010-04-26 07:46:12 51°14.004 2°55.452 5.1 26 9.7 102470 43
2010-04-26 07:46:17 51°14.004 2°55.453 4.4 260 9.7 102470 43
2010-04-26 07:46:21 51°14.004 2°55.453 2.9 253 9.7 102480 42
2010-04-26 07:46:26 51°14.004 2°55.453 5 242 9.7 102480 42
2010-04-26 07:46:31 51°14.004 2°55.453 6.7 251 9.7 102480 43
2010-04-26 07:46:37 51°14.004 2°55.453 3.8 245 9.7 102480 43
2010-04-26 07:46:41 51°14.004 2°55.453 3.6 270 9.7 102480 40
2010-04-26 07:46:46 51°14.004 2°55.453 3.8 243 9.7 102480 40
2010-04-26 07:46:51 51°14.004 2°55.453 4.4 249 9.6 102470 39
2010-04-26 07:46:57 51°14.004 2°55.453 2.3 258 9.6 102470 39
2010-04-26 07:47:01 51°14.004 2°55.453 2.3 19 9.6 102470 39
2010-04-26 07:47:06 51°14.004 2°55.453 1.7 242 9.6 102470 39
2010-04-26 07:47:11 51°14.004 2°55.453 5.7 27 9.7 102480 39
2010-04-26 07:47:17 51°14.004 2°55.453 5.3 258 9.7 102480 39
2010-04-26 07:47:21 51°14.004 2°55.453 5.1 261 9.6 102480 42
2010-04-26 07:47:26 51°14.004 2°55.453 4.7 251 9.6 102480 42
2010-04-26 07:47:31 51°14.004 2°55.453 4.6 267 9.6 102480 39
2010-04-26 07:47:37 51°14.004 2°55.453 4.4 251 9.6 102480 39
2010-04-26 07:47:41 51°14.004 2°55.453 3.4 267 9.6 102480 40
2010-04-26 07:47:47 51°14.004 2°55.453 2.7 258 9.6 102480 40
2010-04-26 07:47:51 51°14.004 2°55.453 3.9 250 9.6 102480 41
2010-04-26 07:47:57 51°14.004 2°55.452 5.1 239 9.6 102480 41
2010-04-26 07:48:01 51°14.004 2°55.452 5.6 20 9.6 102470 40
2010-04-26 07:48:06 51°14.004 2°55.452 2.3 268 9.6 102470 40
2010-04-26 07:48:11 51°14.004 2°55.452 1.4 25 9.6 102480 35
2010-04-26 07:48:17 51°14.004 2°55.452 1.6 265 9.6 102480 35
2010-04-26 07:48:21 51°14.004 2°55.452 0.7 26 9.6 102480 40
2010-04-26 07:48:26 51°14.004 2°55.452 3.1 254 9.6 102480 40
2010-04-26 07:48:31 51°14.004 2°55.452 2.9 253 9.6 102470 40
2010-04-26 07:48:37 51°14.004 2°55.452 4.8 248 9.6 102470 40
2010-04-26 07:48:41 51°14.004 2°55.452 6.8 20 9.6 102480 40
2010-04-26 07:48:46 51°14.004 2°55.452 6.5 252 9.6 102480 40
2010-04-26 07:48:51 51°14.004 2°55.452 6.8 261 9.6 102480 40
2010-04-26 07:48:57 51°14.004 2°55.452 5.7 242 9.6 102480 40
2010-04-26 07:49:01 51°14.004 2°55.452 5.3 24 9.6 102480 40
2010-04-26 07:49:06 51°14.004 2°55.452 4 250 9.6 102480 40
2010-04-26 07:49:11 51°14.004 2°55.452 4.5 255 9.6 102480 40
2010-04-26 07:49:17 51°14.004 2°55.452 4.1 237 9.6 102480 40
2010-04-26 07:49:21 51°14.005 2°55.453 3.4 249 9.6 102480 39
2010-04-26 07:49:26 51°14.005 2°55.452 2 261 9.6 102480 39
2010-04-26 07:49:31 51°14.004 2°55.452 4.1 261 9.6 102490 40
2010-04-26 07:49:37 51°14.004 2°55.452 6.4 255 9.6 102490 40
2010-04-26 07:49:41 51°14.004 2°55.452 4.7 283 9.6 102490 43
2010-04-26 07:49:47 51°14.004 2°55.452 4.5 263 9.6 102490 43
2010-04-26 07:49:52 51°14.004 2°55.452 6.9 281 9.6 102480 39
2010-04-26 07:49:57 51°14.004 2°55.452 7.3 252 9.6 102480 39
2010-04-26 07:50:01 51°14.004 2°55.452 7.9 250 9.6 102480 40
2010-04-26 07:50:06 51°14.004 2°55.452 3.3 257 9.6 102480 40
2010-04-26 07:50:12 51°14.004 2°55.452 4.5 285 9.6 102480 40
2010-04-26 07:50:17 51°14.004 2°55.452 5.5 253 9.6 102480 40
2010-04-26 07:50:21 51°14.004 2°55.452 4.2 278 9.6 102480 38
2010-04-26 07:50:27 51°14.004 2°55.452 3.8 250 9.6 102480 38
2010-04-26 07:50:32 51°14.004 2°55.452 3.6 285 9.6 102490 41
2010-04-26 07:50:37 51°14.004 2°55.452 3.7 249 9.6 102490 41
2010-04-26 07:50:41 51°14.004 2°55.452 3.7 280 9.6 102480 43
2010-04-26 07:50:46 51°14.005 2°55.452 3.9 262 9.6 102480 43
2010-04-26 07:50:52 51°14.005 2°55.452 4.5 278 9.6 102480 40
2010-04-26 07:50:57 51°14.004 2°55.452 5.4 248 9.6 102480 40
2010-04-26 07:51:01 51°14.005 2°55.452 4.5 252 9.6 102480 40
2010-04-26 07:51:06 51°14.004 2°55.452 2.5 268 9.6 102480 40
2010-04-26 07:51:11 51°14.004 2°55.451 4.3 281 9.6 102480 43
2010-04-26 07:51:17 51°14.004 2°55.451 5.7 255 9.6 102480 43
2010-04-26 07:51:21 51°14.004 2°55.451 3.9 279 9.6 102480 40
2010-04-26 07:51:44 51°14.004 2°55.451 4.7 304 9.6 102490 40
2010-04-26 07:51:49 51°14.004 2°55.451 4.3 21 9.6 102480 40
2010-04-26 07:51:53 51°14.004 2°55.451 1.9 309 9.6 102480 40
2010-04-26 07:51:58 51°14.004 2°55.451 2.7 256 9.6 102480 39
2010-04-26 07:52:04 51°14.004 2°55.451 2.9 310 9.6 102480 39
2010-04-26 07:52:09 51°14.004 2°55.451 2.6 262 9.6 102480 40
2010-04-26 07:52:13 51°14.004 2°55.451 2.9 307 9.6 102480 40
2010-04-26 07:52:18 51°14.004 2°55.451 3.3 250 9.6 102480 43
2010-04-26 07:52:23 51°14.004 2°55.451 1.9 301 9.6 102480 43
2010-04-26 07:52:28 51°14.004 2°55.451 3.5 259 9.6 102480 43
2010-04-26 07:52:33 51°14.004 2°55.451 5.2 305 9.6 102480 43
2010-04-26 07:52:38 51°14.004 2°55.451 4.1 257 9.6 102480 43
2010-04-26 07:52:43 51°14.004 2°55.451 4.6 308 9.6 102480 43
2010-04-26 07:52:44 51°14.004 2°55.451 4.6 308 9.6 102480 43
2010-04-26 07:52:53 51°14.004 2°55.451 4.7 304 9.6 102480 39
2010-04-26 07:52:53 51°14.004 2°55.451 4.7 304 9.6 102480 39
2010-04-26 07:53:09 51°14.004 2°55.451 3.3 247 9.6 102480 41
2010-04-26 07:53:27 51°14.005 2°55.451 3.7 255 9.6 102480 39
2010-04-26 07:53:33 51°14.005 2°55.452 5.9 280 9.6 102480 39
2010-04-26 07:53:49 51°14.005 2°55.452 6.3 261 9.6 102480 43
2010-04-26 07:53:49 51°14.005 2°55.452 6.3 261 9.6 102480 43
2010-04-26 07:53:58 51°14.005 2°55.452 3.8 22 9.6 102480 41
2010-04-26 07:54:04 51°14.005 2°55.452 3.3 304 9.6 102480 41
2010-04-26 07:54:22 51°14.005 2°55.452 4.7 280 9.6 102490 43
2010-04-26 07:54:27 51°14.005 2°55.452 2.7 266 9.6 102480 40
2010-04-26 07:54:33 51°14.005 2°55.452 5 285 9.6 102480 40
2010-04-26 07:54:37 51°14.005 2°55.452 2.8 259 9.6 102480 41
2010-04-26 07:54:42 51°14.005 2°55.451 4.4 285 9.6 102480 41
2010-04-26 07:54:48 51°14.005 2°55.451 4.9 266 9.6 102490 39
2010-04-26 07:54:53 51°14.005 2°55.451 7.1 281 9.6 102490 39
2010-04-26 07:54:57 51°14.005 2°55.451 4.7 244 9.6 102480 40
2010-04-26 07:55:02 51°14.005 2°55.451 4.9 284 9.6 102480 40
2010-04-26 07:55:07 51°14.005 2°55.451 3.2 267 9.6 102480 40
2010-04-26 07:55:13 51°14.005 2°55.451 4.8 284 9.6 102480 40
2010-04-26 07:55:17 51°14.005 2°55.451 2.2 266 9.6 102480 40
2010-04-26 07:55:22 51°14.005 2°55.451 5.2 278 9.6 102480 40
2010-04-26 07:55:28 51°14.005 2°55.451 2.2 266 9.6 102470 43
2010-04-26 07:55:33 51°14.005 2°55.451 3.3 283 9.6 102470 43
2010-04-26 07:55:37 51°14.005 2°55.451 6.5 250 9.6 102480 38
2010-04-26 07:55:42 51°14.005 2°55.451 4.4 284 9.6 102480 38
2010-04-26 07:55:47 51°14.005 2°55.451 4 267 9.6 102480 40
2010-04-26 07:55:53 51°14.005 2°55.451 4.8 279 9.6 102480 40
2010-04-26 07:55:57 51°14.005 2°55.452 4.9 261 9.6 102480 41
2010-04-26 07:56:02 51°14.005 2°55.451 3.3 279 9.6 102480 41
2010-04-26 07:56:07 51°14.004 2°55.451 4.5 21 9.6 102490 45
2010-04-26 07:56:13 51°14.004 2°55.451 2.1 279 9.6 102490 45
2010-04-26 07:56:17 51°14.004 2°55.451 3.4 253 9.6 102480 42
2010-04-26 07:56:22 51°14.004 2°55.451 1.8 282 9.6 102480 42
2010-04-26 07:56:28 51°14.004 2°55.451 2.2 26 9.6 102490 40
2010-04-26 07:56:33 51°14.004 2°55.451 3.6 283 9.6 102490 40
2010-04-26 07:56:37 51°14.004 2°55.451 4 246 9.6 102480 43
2010-04-26 07:56:43 51°14.004 2°55.451 4.4 277 9.6 102480 43
2010-04-26 07:56:47 51°14.004 2°55.451 4 22 9.6 102480 40
2010-04-26 07:56:53 51°14.004 2°55.451 3.2 279 9.6 102480 40
2010-04-26 07:56:57 51°14.004 2°55.451 6.7 254 9.6 102480 43
2010-04-26 07:57:02 51°14.004 2°55.451 6.3 284 9.6 102480 43
2010-04-26 07:57:07 51°14.004 2°55.451 4.2 257 9.6 102480 40
2010-04-26 07:57:13 51°14.004 2°55.451 3.4 285 9.6 102480 40
2010-04-26 07:57:17 51°14.004 2°55.451 5 257 9.6 102490 40
2010-04-26 07:57:22 51°14.004 2°55.451 3.9 279 9.6 102490 40
2010-04-26 07:57:27 51°14.004 2°55.451 3.4 19 9.6 102480 43
2010-04-26 07:57:33 51°14.004 2°55.451 2.1 279 9.6 102480 43
2010-04-26 07:57:37 51°14.004 2°55.451 1.9 263 9.6 102490 43
2010-04-26 07:57:42 51°14.004 2°55.451 2.5 277 9.6 102490 43
2010-04-26 07:57:47 51°14.004 2°55.451 2.1 253 9.6 102480 43
2010-04-26 07:57:53 51°14.004 2°55.451 3.3 282 9.6 102480 43
2010-04-26 07:57:57 51°14.004 2°55.451 4.6 257 9.6 102480 44
2010-04-26 07:58:02 51°14.004 2°55.451 5.7 280 9.6 102480 44
2010-04-26 07:58:07 51°14.004 2°55.451 3.6 20 9.6 102480 40
2010-04-26 07:58:13 51°14.004 2°55.451 5.4 278 9.6 102480 40
2010-04-26 07:58:17 51°14.004 2°55.451 5.6 22 9.6 102490 42
2010-04-26 07:58:22 51°14.004 2°55.451 3.4 280 9.6 102490 42
2010-04-26 07:58:28 51°14.005 2°55.451 4.6 25 9.6 102490 40
2010-04-26 07:58:33 51°14.005 2°55.451 4.8 285 9.6 102490 40
2010-04-26 07:58:37 51°14.005 2°55.451 2.1 251 9.6 102470 40
2010-04-26 07:58:43 51°14.005 2°55.451 2.5 280 9.6 102470 40
2010-04-26 07:58:48 51°14.005 2°55.451 3.8 258 9.6 102480 40
2010-04-26 07:58:53 51°14.005 2°55.451 4.8 278 9.6 102480 40
2010-04-26 07:58:57 51°14.005 2°55.451 4.3 260 9.6 102470 44
2010-04-26 07:59:02 51°14.005 2°55.451 1.8 284 9.6 102470 44
2010-04-26 07:59:07 51°14.005 2°55.451 1.5 261 9.6 102480 42
2010-04-26 07:59:13 51°14.005 2°55.451 2.9 284 9.6 102480 42
2010-04-26 07:59:17 51°14.005 2°55.452 1.5 247 9.6 102490 43
2010-04-26 07:59:22 51°14.005 2°55.452 2.7 279 9.6 102490 43
2010-04-26 07:59:27 51°14.005 2°55.452 5.1 246 9.6 102480 42
2010-04-26 07:59:33 51°14.004 2°55.451 3.7 280 9.6 102480 42
2010-04-26 07:59:37 51°14.005 2°55.452 3.9 20 9.6 102480 40
2010-04-26 07:59:43 51°14.005 2°55.452 4.3 283 9.6 102480 40
2010-04-26 07:59:47 51°14.005 2°55.452 1.4 25 9.6 102480 43
2010-04-26 07:59:53 51°14.005 2°55.452 2.5 278 9.6 102480 43
2010-04-26 07:59:57 51°14.005 2°55.452 3.7 251 9.6 102490 43
2010-04-26 08:00:02 51°14.005 2°55.452 1.4 283 9.6 102490 43
2010-04-26 08:00:07 51°14.005 2°55.452 2.3 260 9.6 102480 43
2010-04-26 08:00:13 51°14.005 2°55.452 3.5 279 9.6 102480 43
2010-04-26 08:00:17 51°14.005 2°55.452 2.3 268 9.6 102480 40
2010-04-26 08:00:22 51°14.005 2°55.452 2.7 77 9.6 102480 40
2010-04-26 08:00:27 51°14.005 2°55.452 3 261 9.6 102480 40
2010-04-26 08:00:33 51°14.005 2°55.452 1.8 278 9.6 102480 40
2010-04-26 08:00:37 51°14.005 2°55.452 0.6 28 9.6 102480 44
2010-04-26 08:00:42 51°14.005 2°55.452 1.7 288 9.6 102480 44
2010-04-26 08:00:48 51°14.005 2°55.452 1.9 21 9.6 102480 40
2010-04-26 08:00:53 51°14.005 2°55.452 0.5 279 9.6 102480 40
2010-04-26 08:00:57 51°14.005 2°55.452 2.9 257 9.6 102490 42
2010-04-26 08:01:02 51°14.005 2°55.452 2.9 281 9.6 102490 42
2010-04-26 08:01:07 51°14.005 2°55.452 4.1 261 9.6 102490 40
2010-04-26 08:01:13 51°14.005 2°55.452 2.7 282 9.6 102490 40
2010-04-26 08:01:17 51°14.005 2°55.452 2.9 22 9.6 102480 40
2010-04-26 08:01:22 51°14.005 2°55.452 3.4 284 9.6 102480 40
2010-04-26 08:01:28 51°14.005 2°55.452 5.2 23 9.6 102490 40
2010-04-26 08:01:33 51°14.005 2°55.452 4.4 285 9.6 102490 40
2010-04-26 08:01:37 51°14.005 2°55.452 3.1 248 9.6 102490 41
2010-04-26 08:01:42 51°14.005 2°55.452 3.6 277 9.6 102490 41
2010-04-26 08:01:47 51°14.005 2°55.451 4.3 256 9.6 102480 40
2010-04-26 08:01:53 51°14.005 2°55.452 4.3 283 9.6 102480 40
2010-04-26 08:01:57 51°14.005 2°55.452 2.6 27 9.6 102490 43
2010-04-26 08:02:02 51°14.005 2°55.451 1.3 281 9.6 102490 43
2010-04-26 08:02:07 51°14.005 2°55.452 6.8 28 9.6 102490 40
2010-04-26 08:02:13 51°14.005 2°55.451 2.2 80 9.6 102490 40
2010-04-26 08:02:17 51°14.005 2°55.451 2.1 263 9.6 102480 43
2010-04-26 08:02:22 51°14.005 2°55.451 1.2 71 9.6 102480 43
2010-04-26 08:02:27 51°14.005 2°55.451 3.3 24 9.7 102470 41
2010-04-26 08:02:33 51°14.005 2°55.451 1.9 281 9.7 102470 41
2010-04-26 08:02:37 51°14.005 2°55.451 1.8 20 9.7 102480 40
2010-04-26 08:02:42 51°14.005 2°55.451 2.7 285 9.7 102480 40
2010-04-26 08:02:48 51°14.005 2°55.451 1.8 22 9.6 102480 41
2010-04-26 08:02:53 51°14.005 2°55.451 2.2 283 9.6 102480 41
2010-04-26 08:02:57 51°14.005 2°55.451 2.7 262 9.6 102490 40
2010-04-26 08:03:02 51°14.005 2°55.451 3.4 280 9.6 102490 40
2010-04-26 08:03:07 51°14.005 2°55.451 4.1 256 9.6 102480 40
2010-04-26 08:03:13 51°14.005 2°55.451 2.1 281 9.6 102480 40
2010-04-26 08:03:17 51°14.005 2°55.451 1.7 20 9.6 102480 40
2010-04-26 08:03:22 51°14.005 2°55.451 0.4 283 9.6 102480 40
2010-04-26 08:03:28 51°14.005 2°55.451 1.9 259 9.6 102480 40
2010-04-26 08:03:33 51°14.005 2°55.451 2.7 279 9.6 102480 40
2010-04-26 08:03:37 51°14.005 2°55.451 3.2 24 9.6 102490 39
2010-04-26 08:03:43 51°14.005 2°55.451 3.5 284 9.6 102490 39
2010-04-26 08:03:48 51°14.005 2°55.451 2.9 23 9.6 102480 42
2010-04-26 08:03:53 51°14.005 2°55.451 3.8 281 9.6 102480 42
2010-04-26 08:03:57 51°14.005 2°55.451 3.2 253 9.6 102480 43
2010-04-26 08:04:02 51°14.005 2°55.451 2.3 281 9.6 102480 43
2010-04-26 08:04:07 51°14.005 2°55.451 3.9 21 9.6 102480 41
2010-04-26 08:04:13 51°14.005 2°55.451 2.8 279 9.6 102480 41
2010-04-26 08:04:17 51°14.005 2°55.451 2.8 19 9.6 102480 43
2010-04-26 08:04:22 51°14.005 2°55.451 4.2 284 9.6 102480 43
2010-04-26 08:04:27 51°14.005 2°55.451 2 261 9.6 102480 43
2010-04-26 08:04:33 51°14.005 2°55.451 1.8 78 9.6 102480 43
2010-04-26 08:04:37 51°14.005 2°55.451 2 264 9.6 102480 40
2010-04-26 08:04:42 51°14.005 2°55.451 0.5 78 9.6 102480 40
2010-04-26 08:04:47 51°14.005 2°55.451 0.1 20 9.6 102480 39
2010-04-26 08:04:53 51°14.005 2°55.451 4.6 279 9.6 102480 39
2010-04-26 08:04:57 51°14.005 2°55.451 2.6 23 9.6 102480 41
2010-04-26 08:05:02 51°14.005 2°55.451 3.8 283 9.6 102480 41
2010-04-26 08:05:07 51°14.005 2°55.451 2.2 23 9.6 102480 40
2010-04-26 08:05:12 51°14.005 2°55.451 1.5 278 9.6 102480 40
2010-04-26 08:05:17 51°14.005 2°55.451 1.8 244 9.6 102480 43
2010-04-26 08:05:22 51°14.005 2°55.451 2.8 284 9.6 102480 43
2010-04-26 08:05:27 51°14.004 2°55.451 1.5 261 9.6 102480 44
2010-04-26 08:05:33 51°14.005 2°55.451 3.2 75 9.6 102480 44
2010-04-26 08:05:37 51°14.005 2°55.451 1.4 260 9.6 102480 42
2010-04-26 08:05:42 51°14.005 2°55.451 0.9 78 9.6 102480 42
2010-04-26 08:05:48 51°14.005 2°55.451 2.6 19 9.6 102480 44
2010-04-26 08:05:53 51°14.004 2°55.451 2.2 281 9.6 102480 44
2010-04-26 08:05:57 51°14.004 2°55.451 4.3 26 9.6 102480 39
2010-04-26 08:06:02 51°14.004 2°55.451 2.4 284 9.6 102480 39
2010-04-26 08:06:07 51°14.004 2°55.451 5 258 9.6 102480 40
2010-04-26 08:06:13 51°14.004 2°55.451 2.8 280 9.6 102480 40
2010-04-26 08:06:17 51°14.004 2°55.451 3.7 257 9.6 102480 42
2010-04-26 08:06:22 51°14.004 2°55.451 3.3 280 9.6 102480 42
2010-04-26 08:06:27 51°14.004 2°55.451 5.2 23 9.6 102470 43
2010-04-26 08:06:33 51°14.004 2°55.451 5 285 9.6 102470 43
2010-04-26 08:06:37 51°14.004 2°55.451 5.3 257 9.6 102480 43
2010-04-26 08:06:43 51°14.004 2°55.451 5.4 286 9.6 102480 43
2010-04-26 08:06:47 51°14.004 2°55.451 6.9 23 9.6 102480 42
2010-04-26 08:06:53 51°14.004 2°55.451 6.8 284 9.6 102480 42
2010-04-26 08:06:57 51°14.004 2°55.451 2.7 255 9.6 102480 43
2010-04-26 08:07:02 51°14.004 2°55.451 2.3 286 9.6 102480 43
2010-04-26 08:07:07 51°14.004 2°55.451 1.5 24 9.6 102480 41
2010-04-26 08:07:12 51°14.004 2°55.451 4.1 284 9.6 102480 41
2010-04-26 08:07:17 51°14.004 2°55.451 2.2 254 9.6 102470 40
2010-04-26 08:07:22 51°14.004 2°55.451 4.3 280 9.6 102470 40
2010-04-26 08:07:27 51°14.004 2°55.451 3.9 26 9.6 102480 43
2010-04-26 08:07:33 51°14.004 2°55.451 2.5 82 9.6 102480 43
2010-04-26 08:07:37 51°14.004 2°55.451 2.7 20 9.6 102480 40
2010-04-26 08:07:42 51°14.004 2°55.451 2.7 277 9.6 102480 40
2010-04-26 08:07:48 51°14.005 2°55.451 5 255 9.6 102470 44
2010-04-26 08:07:53 51°14.005 2°55.451 4 279 9.6 102470 44
2010-04-26 08:07:57 51°14.005 2°55.451 5.9 19 9.5 102470 44
2010-04-26 08:08:02 51°14.005 2°55.451 4.2 278 9.5 102470 44
2010-04-26 08:08:07 51°14.005 2°55.451 4.4 255 9.6 102470 40
2010-04-26 08:08:13 51°14.005 2°55.451 1.9 79 9.6 102470 40
2010-04-26 08:08:17 51°14.005 2°55.451 0.2 24 9.5 102480 40
2010-04-26 08:08:22 51°14.005 2°55.451 0.1 284 9.5 102480 40
2010-04-26 08:08:28 51°14.005 2°55.451 5.4 253 9.5 102470 44
2010-04-26 08:08:33 51°14.005 2°55.451 4 81 9.5 102470 44
2010-04-26 08:08:37 51°14.004 2°55.451 2.8 269 9.5 102470 41
2010-04-26 08:08:43 51°14.005 2°55.451 2.3 80 9.5 102470 41
2010-04-26 08:08:48 51°14.005 2°55.451 1.6 19 9.5 102470 40
2010-04-26 08:08:53 51°14.005 2°55.451 1.6 279 9.5 102470 40
2010-04-26 08:08:57 51°14.005 2°55.451 4.6 260 9.6 102470 39
2010-04-26 08:09:02 51°14.005 2°55.451 3.3 279 9.6 102470 39
2010-04-26 08:09:07 51°14.005 2°55.451 2.6 252 9.5 102470 43
2010-04-26 08:09:13 51°14.005 2°55.451 2.2 278 9.5 102470 43
2010-04-26 08:09:17 51°14.005 2°55.451 0.4 326 9.5 102470 43
2010-04-26 08:09:22 51°14.005 2°55.451 0.1 283 9.5 102470 43
2010-04-26 08:09:27 51°14.005 2°55.451 2 255 9.5 102470 40
2010-04-26 08:09:33 51°14.005 2°55.451 2.3 281 9.5 102470 40
2010-04-26 08:09:37 51°14.005 2°55.451 1.7 253 9.6 102470 41
2010-04-26 08:09:42 51°14.005 2°55.451 0.2 282 9.6 102470 41
2010-04-26 08:09:47 51°14.005 2°55.451 0.2 19 9.6 102470 42
2010-04-26 08:09:53 51°14.005 2°55.451 0.1 278 9.6 102470 42
2010-04-26 08:09:57 51°14.005 2°55.451 3.4 254 9.5 102470 42
2010-04-26 08:10:03 51°14.005 2°55.451 2.8 283 9.5 102470 42
2010-04-26 08:10:07 51°14.005 2°55.451 0.8 32 9.5 102470 41
2010-04-26 08:10:13 51°14.005 2°55.451 4.8 278 9.5 102470 41
2010-04-26 08:10:17 51°14.005 2°55.451 3.3 255 9.6 102470 40
2010-04-26 08:10:22 51°14.005 2°55.451 3.6 281 9.6 102470 40
2010-04-26 08:10:27 51°14.005 2°55.451 2.8 270 9.5 102470 41
2010-04-26 08:10:33 51°14.005 2°55.451 3.9 285 9.5 102470 41
2010-04-26 08:10:37 51°14.005 2°55.451 5.1 21 9.6 102470 43
2010-04-26 08:10:41 51°14.005 2°55.451 2.9 285 9.6 102470 43
2010-04-26 08:10:48 51°14.004 2°55.451 2.7 252 9.6 102470 44
2010-04-26 08:10:53 51°14.005 2°55.451 4.7 279 9.6 102470 44
2010-04-26 08:10:57 51°14.005 2°55.451 3 21 9.6 102480 43
2010-04-26 08:11:02 51°14.004 2°55.451 2.1 286 9.6 102480 43
2010-04-26 08:11:07 51°14.004 2°55.451 2 248 9.6 102470 40
2010-04-26 08:11:13 51°14.004 2°55.451 6.5 283 9.6 102470 40
2010-04-26 08:11:17 51°14.004 2°55.451 3.4 250 9.6 102480 42
2010-04-26 08:11:22 51°14.004 2°55.451 3.9 285 9.6 102480 42
2010-04-26 08:11:27 51°14.004 2°55.451 4.2 265 9.6 102470 40
2010-04-26 08:11:33 51°14.004 2°55.451 4.6 286 9.6 102470 40
2010-04-26 08:11:37 51°14.004 2°55.451 5 267 9.6 102480 39
2010-04-26 08:11:43 51°14.004 2°55.451 3.6 280 9.6 102480 39
2010-04-26 08:11:47 51°14.004 2°55.451 2.8 269 9.6 102480 40
2010-04-26 08:11:53 51°14.004 2°55.452 3.4 283 9.6 102480 40
2010-04-26 08:11:57 51°14.004 2°55.451 0.3 256 9.5 102480 40
2010-04-26 08:12:02 51°14.004 2°55.451 3.6 278 9.5 102480 40
2010-04-26 08:12:07 51°14.004 2°55.452 1.5 261 9.5 102470 43
2010-04-26 08:12:12 51°14.004 2°55.452 1.9 281 9.5 102470 43
2010-04-26 08:12:17 51°14.004 2°55.451 4 26 9.5 102470 39
2010-04-26 08:12:22 51°14.004 2°55.452 4.8 285 9.5 102470 39
2010-04-26 08:12:27 51°14.004 2°55.452 4.2 252 9.5 102470 42
2010-04-26 08:12:33 51°14.004 2°55.451 6 279 9.5 102470 42
2010-04-26 08:12:37 51°14.004 2°55.452 3 260 9.5 102470 40
2010-04-26 08:12:42 51°14.004 2°55.452 2.7 282 9.5 102470 40
2010-04-26 08:12:48 51°14.004 2°55.452 4.5 256 9.5 102480 40
2010-04-26 08:12:53 51°14.004 2°55.451 1.8 280 9.5 102480 40
2010-04-26 08:12:57 51°14.004 2°55.452 3.9 252 9.6 102470 40
2010-04-26 08:13:02 51°14.004 2°55.452 1.4 280 9.6 102470 40
2010-04-26 08:13:07 51°14.004 2°55.451 2.1 19 9.6 102470 41
2010-04-26 08:13:13 51°14.004 2°55.452 4.2 283 9.6 102470 41
2010-04-26 08:13:17 51°14.004 2°55.451 3.2 250 9.6 102480 40
2010-04-26 08:13:22 51°14.004 2°55.452 2.8 284 9.6 102480 40
2010-04-26 08:13:27 51°14.004 2°55.451 1.9 251 9.6 102470 40
2010-04-26 08:13:33 51°14.004 2°55.452 5.6 284 9.6 102470 40
2010-04-26 08:13:37 51°14.004 2°55.451 4 260 9.6 102480 42
2010-04-26 08:13:42 51°14.004 2°55.451 1.3 283 9.6 102480 42
2010-04-26 08:13:47 51°14.004 2°55.451 1.2 261 9.5 102470 40
2010-04-26 08:13:52 51°14.004 2°55.452 3.9 280 9.5 102470 40
2010-04-26 08:13:57 51°14.004 2°55.451 2.6 249 9.6 102480 40
2010-04-26 08:14:02 51°14.004 2°55.452 3.8 80 9.6 102480 40
2010-04-26 08:14:07 51°14.004 2°55.451 3 264 9.5 102470 40
2010-04-26 08:14:13 51°14.004 2°55.452 5 285 9.5 102470 40
2010-04-26 08:14:17 51°14.004 2°55.452 3.4 267 9.6 102480 41
2010-04-26 08:14:22 51°14.004 2°55.452 2.4 81 9.6 102480 41
2010-04-26 08:14:28 51°14.004 2°55.451 3 263 9.6 102470 43
2010-04-26 08:14:33 51°14.004 2°55.452 2.5 287 9.6 102470 43
2010-04-26 08:14:37 51°14.004 2°55.452 2.4 25 9.6 102490 43
2010-04-26 08:14:43 51°14.004 2°55.452 1.8 78 9.6 102490 43
2010-04-26 08:14:48 51°14.004 2°55.452 7 254 9.5 102480 40
2010-04-26 08:14:53 51°14.004 2°55.452 5.7 283 9.5 102480 40
2010-04-26 08:14:57 51°14.004 2°55.452 3.4 22 9.5 102480 40
2010-04-26 08:15:02 51°14.004 2°55.452 3.9 277 9.5 102480 40
2010-04-26 08:15:07 51°14.004 2°55.452 3 27 9.5 102470 40
2010-04-26 08:15:13 51°14.004 2°55.452 2.7 280 9.5 102470 40
2010-04-26 08:15:17 51°14.004 2°55.452 2 255 9.5 102470 40
2010-04-26 08:15:22 51°14.004 2°55.452 5.5 279 9.5 102470 40
2010-04-26 08:15:27 51°14.004 2°55.452 5.6 21 9.5 102480 40
2010-04-26 08:15:33 51°14.004 2°55.452 5.4 281 9.5 102480 40
2010-04-26 08:15:37 51°14.004 2°55.452 4.1 20 9.5 102480 43
2010-04-26 08:15:42 51°14.004 2°55.452 3.8 279 9.5 102480 43
2010-04-26 08:15:47 51°14.004 2°55.452 0.9 4 9.5 102490 41
2010-04-26 08:15:53 51°14.004 2°55.452 1.5 284 9.5 102490 41
2010-04-26 08:15:57 51°14.004 2°55.452 0.8 22 9.5 102480 41
2010-04-26 08:16:02 51°14.004 2°55.452 1.8 286 9.5 102480 41
2010-04-26 08:16:07 51°14.004 2°55.452 1.9 20 9.5 102480 41
2010-04-26 08:16:13 51°14.004 2°55.452 2 279 9.5 102480 41
2010-04-26 08:16:17 51°14.004 2°55.452 0.9 23 9.5 102480 39
2010-04-26 08:16:23 51°14.004 2°55.452 0.2 281 9.5 102480 39
2010-04-26 08:16:27 51°14.004 2°55.452 3.8 251 9.5 102480 41
2010-04-26 08:16:33 51°14.004 2°55.452 3.7 281 9.5 102480 41
2010-04-26 08:16:37 51°14.004 2°55.452 5.6 21 9.5 102480 41
2010-04-26 08:16:43 51°14.004 2°55.452 5.2 280 9.5 102480 41
2010-04-26 08:16:47 51°14.004 2°55.452 4.9 266 9.5 102480 44
2010-04-26 08:16:53 51°14.004 2°55.452 3.8 284 9.5 102480 44
2010-04-26 08:16:57 51°14.004 2°55.452 1.3 244 9.5 102480 39
2010-04-26 08:17:03 51°14.004 2°55.452 2 283 9.5 102480 39
2010-04-26 08:17:07 51°14.004 2°55.452 2.3 22 9.5 102480 41
2010-04-26 08:17:13 51°14.004 2°55.452 5 283 9.5 102480 41
2010-04-26 08:17:17 51°14.004 2°55.452 4.5 252 9.5 102480 42
2010-04-26 08:17:22 51°14.003 2°55.452 5.6 284 9.5 102480 42
2010-04-26 08:17:27 51°14.004 2°55.452 5.5 24 9.5 102480 43
2010-04-26 08:17:33 51°14.004 2°55.452 5.9 284 9.5 102480 43
2010-04-26 08:17:37 51°14.004 2°55.452 1.7 31 9.5 102480 40
2010-04-26 08:17:42 51°14.004 2°55.452 2.4 284 9.5 102480 40
2010-04-26 08:17:48 51°14.004 2°55.452 0.3 23 9.5 102480 41
2010-04-26 08:17:53 51°14.004 2°55.452 1.2 287 9.5 102480 41
2010-04-26 08:17:57 51°14.004 2°55.452 0.1 18 9.5 102480 40
2010-04-26 08:18:02 51°14.004 2°55.452 3.3 281 9.5 102480 40
2010-04-26 08:18:07 51°14.004 2°55.452 2.3 258 9.5 102470 40
2010-04-26 08:18:13 51°14.004 2°55.452 2.2 285 9.5 102470 40
2010-04-26 08:18:17 51°14.004 2°55.452 5.5 269 9.5 102480 40
2010-04-26 08:18:22 51°14.004 2°55.452 2.6 283 9.5 102480 40
2010-04-26 08:18:27 51°14.004 2°55.452 5.1 257 9.5 102470 40
2010-04-26 08:18:33 51°14.004 2°55.452 2 77 9.5 102470 40
2010-04-26 08:18:37 51°14.004 2°55.452 2.1 24 9.5 102480 40
2010-04-26 08:18:42 51°14.004 2°55.452 5.3 279 9.5 102480 40
2010-04-26 08:18:47 51°14.004 2°55.452 6.8 23 9.5 102470 44
2010-04-26 08:18:52 51°14.004 2°55.452 3.9 284 9.5 102470 44
2010-04-26 08:18:57 51°14.004 2°55.452 3.5 256 9.5 102470 40
2010-04-26 08:19:02 51°14.004 2°55.452 5.2 281 9.5 102470 40
2010-04-26 08:19:07 51°14.004 2°55.452 3.7 260 9.4 102470 43
2010-04-26 08:19:13 51°14.004 2°55.451 3.2 80 9.4 102470 43
2010-04-26 08:19:17 51°14.004 2°55.451 3.5 265 9.4 102470 40
2010-04-26 08:19:22 51°14.004 2°55.451 3.5 74 9.4 102470 40
2010-04-26 08:19:27 51°14.004 2°55.452 2.4 253 9.4 102470 41
2010-04-26 08:19:32 51°14.004 2°55.451 3.1 284 9.4 102470 41
2010-04-26 08:19:37 51°14.004 2°55.451 0.7 24 9.5 102470 43
2010-04-26 08:19:42 51°14.004 2°55.452 5.1 280 9.5 102470 43
2010-04-26 08:19:47 51°14.004 2°55.451 3.9 252 9.4 102480 40
2010-04-26 08:19:53 51°14.004 2°55.451 4.3 281 9.4 102480 40
2010-04-26 08:19:57 51°14.004 2°55.451 3.5 21 9.4 102480 43
2010-04-26 08:20:02 51°14.004 2°55.451 3.7 284 9.4 102480 43
2010-04-26 08:20:07 51°14.004 2°55.451 2.5 255 9.4 102470 40
2010-04-26 08:20:13 51°14.004 2°55.452 1.8 280 9.4 102470 40
2010-04-26 08:20:17 51°14.004 2°55.451 5.5 261 9.4 102490 44
2010-04-26 08:20:22 51°14.005 2°55.452 6.5 280 9.4 102490 44
2010-04-26 08:20:27 51°14.004 2°55.451 5.7 19 9.4 102470 41
2010-04-26 08:20:33 51°14.004 2°55.451 4.7 279 9.4 102470 41
2010-04-26 08:20:37 51°14.004 2°55.451 3.9 19 9.5 102470 43
2010-04-26 08:20:42 51°14.004 2°55.451 4.9 280 9.5 102470 43
2010-04-26 08:20:48 51°14.005 2°55.452 3.3 21 9.4 102480 40
2010-04-26 08:20:53 51°14.005 2°55.451 3.1 282 9.4 102480 40
2010-04-26 08:20:57 51°14.005 2°55.452 4.8 259 9.5 102470 43
2010-04-26 08:21:02 51°14.005 2°55.451 3.8 280 9.5 102470 43
2010-04-26 08:21:07 51°14.005 2°55.452 2.7 268 9.5 102470 41
2010-04-26 08:21:13 51°14.005 2°55.451 3.1 282 9.5 102470 41
2010-04-26 08:21:17 51°14.005 2°55.452 3.4 264 9.4 102470 43
2010-04-26 08:21:22 51°14.005 2°55.452 3.3 286 9.4 102470 43
2010-04-26 08:21:28 51°14.005 2°55.451 1.1 30 9.4 102470 43
2010-04-26 08:21:33 51°14.005 2°55.451 2.6 282 9.4 102470 43
2010-04-26 08:21:37 51°14.005 2°55.451 4.7 270 9.4 102480 46
2010-04-26 08:21:42 51°14.005 2°55.451 3 281 9.4 102480 46
2010-04-26 08:21:48 51°14.004 2°55.451 2.5 259 9.4 102470 45
2010-04-26 08:21:53 51°14.004 2°55.451 2.7 280 9.4 102470 45
2010-04-26 08:21:57 51°14.004 2°55.451 2.4 22 9.4 102470 43
2010-04-26 08:22:03 51°14.004 2°55.451 2 278 9.4 102470 43
2010-04-26 08:22:08 51°14.005 2°55.451 1.6 22 9.5 102470 40
2010-04-26 08:22:13 51°14.004 2°55.451 1.9 279 9.5 102470 40
2010-04-26 08:22:17 51°14.004 2°55.451 4.4 260 9.4 102480 39
2010-04-26 08:22:22 51°14.004 2°55.451 4.9 279 9.4 102480 39
2010-04-26 08:22:27 51°14.004 2°55.451 3.3 20 9.5 102470 43
2010-04-26 08:22:33 51°14.004 2°55.451 1.5 282 9.5 102470 43
2010-04-26 08:22:37 51°14.004 2°55.451 1.9 268 9.5 102470 43
2010-04-26 08:22:42 51°14.004 2°55.451 3.8 283 9.5 102470 43
2010-04-26 08:22:47 51°14.004 2°55.451 4.7 249 9.4 102470 43
2010-04-26 08:22:53 51°14.004 2°55.451 4 278 9.4 102470 43
2010-04-26 08:22:57 51°14.004 2°55.451 2.4 246 9.4 102470 41
2010-04-26 08:23:02 51°14.004 2°55.451 2.8 285 9.4 102470 41
2010-04-26 08:23:07 51°14.004 2°55.451 0.5 24 9.5 102480 44
2010-04-26 08:23:12 51°14.004 2°55.451 1.2 83 9.5 102480 44
2010-04-26 08:23:17 51°14.004 2°55.451 1.4 28 9.5 102480 40
2010-04-26 08:23:22 51°14.004 2°55.451 1.7 287 9.5 102480 40
2010-04-26 08:23:27 51°14.004 2°55.451 2.8 28 9.5 102470 41
2010-04-26 08:23:33 51°14.004 2°55.45 1.7 284 9.5 102470 41
2010-04-26 08:23:37 51°14.005 2°55.45 2 257 9.5 102470 39
2010-04-26 08:23:43 51°14.004 2°55.45 3.4 285 9.5 102470 39
2010-04-26 08:23:47 51°14.004 2°55.45 3.9 258 9.5 102470 39
2010-04-26 08:23:52 51°14.004 2°55.45 3.6 282 9.5 102470 39
2010-04-26 08:23:57 51°14.004 2°55.45 2.2 19 9.5 102470 40
2010-04-26 08:24:02 51°14.004 2°55.45 3.5 279 9.5 102470 40
2010-04-26 08:24:07 51°14.004 2°55.45 3.6 258 9.5 102470 40
2010-04-26 08:24:13 51°14.004 2°55.45 2.3 285 9.5 102470 40
2010-04-26 08:24:17 51°14.004 2°55.45 5.2 249 9.5 102480 42
2010-04-26 08:24:22 51°14.004 2°55.45 4 278 9.5 102480 42
2010-04-26 08:24:28 51°14.004 2°55.45 4.7 259 9.5 102480 40
2010-04-26 08:24:33 51°14.004 2°55.45 1 282 9.5 102480 40
2010-04-26 08:24:37 51°14.004 2°55.45 1.2 25 9.5 102480 41
2010-04-26 08:24:42 51°14.005 2°55.45 3.5 281 9.5 102480 41
2010-04-26 08:24:48 51°14.005 2°55.45 1.1 260 9.5 102480 40
2010-04-26 08:24:53 51°14.005 2°55.45 3.5 283 9.5 102480 40
2010-04-26 08:24:57 51°14.005 2°55.45 1.9 20 9.5 102470 40
2010-04-26 08:25:02 51°14.005 2°55.45 2.4 -999 9.5 102470 40
2010-04-26 08:25:07 51°14.005 2°55.45 0.2 263 9.5 102470 43
2010-04-26 08:25:12 51°14.005 2°55.45 4.6 286 9.5 102470 43
2010-04-26 08:25:17 51°14.005 2°55.45 3.6 252 9.5 102470 40
2010-04-26 08:25:22 51°14.005 2°55.45 3.4 285 9.5 102470 40
2010-04-26 08:25:28 51°14.005 2°55.45 2.5 21 9.5 102470 41
2010-04-26 08:25:33 51°14.005 2°55.45 3 280 9.5 102470 41
2010-04-26 08:25:37 51°14.005 2°55.45 2.5 252 9.5 102470 40
2010-04-26 08:25:43 51°14.005 2°55.45 2.2 279 9.5 102470 40
2010-04-26 08:25:47 51°14.005 2°55.45 3.3 260 9.5 102470 41
2010-04-26 08:25:52 51°14.005 2°55.45 3.8 284 9.5 102470 41
2010-04-26 08:25:57 51°14.005 2°55.45 5.2 252 9.5 102470 44
2010-04-26 08:26:02 51°14.005 2°55.45 5.3 279 9.5 102470 44
2010-04-26 08:26:07 51°14.005 2°55.45 4 22 9.5 102480 40
2010-04-26 08:26:13 51°14.005 2°55.45 2.8 279 9.5 102480 40
2010-04-26 08:26:17 51°14.005 2°55.45 2.7 267 9.5 102470 41
2010-04-26 08:26:22 51°14.005 2°55.45 3.9 286 9.5 102470 41
2010-04-26 08:26:27 51°14.005 2°55.45 2.4 256 9.5 102480 44
2010-04-26 08:26:33 51°14.005 2°55.45 3 281 9.5 102480 44
2010-04-26 08:26:37 51°14.005 2°55.45 4.1 20 9.5 102470 43
2010-04-26 08:26:42 51°14.005 2°55.45 2.8 279 9.5 102470 43
2010-04-26 08:26:48 51°14.005 2°55.45 2.7 321 9.5 102480 43
2010-04-26 08:26:53 51°14.005 2°55.45 2.8 285 9.5 102480 43
2010-04-26 08:26:57 51°14.005 2°55.45 0.5 252 9.5 102470 41
2010-04-26 08:27:02 51°14.005 2°55.45 3.4 282 9.5 102470 41
2010-04-26 08:27:07 51°14.005 2°55.45 3 260 9.5 102470 44
2010-04-26 08:27:12 51°14.005 2°55.45 4.7 284 9.5 102470 44
2010-04-26 08:27:17 51°14.005 2°55.45 5.1 249 9.5 102470 40
2010-04-26 08:27:22 51°14.005 2°55.45 5.5 286 9.5 102470 40
2010-04-26 08:27:27 51°14.005 2°55.45 5.4 25 9.5 102470 40
2010-04-26 08:27:32 51°14.005 2°55.45 3.7 282 9.5 102470 40
2010-04-26 08:27:37 51°14.005 2°55.45 2.6 250 9.5 102480 42
2010-04-26 08:27:42 51°14.005 2°55.45 2.7 279 9.5 102480 42
2010-04-26 08:27:47 51°14.005 2°55.45 3.9 257 9.5 102480 40
2010-04-26 08:27:52 51°14.005 2°55.45 5.4 286 9.5 102480 40
2010-04-26 08:27:57 51°14.005 2°55.45 8.3 252 9.5 102490 44
2010-04-26 08:28:03 51°14.004 2°55.45 6.9 285 9.5 102490 44
2010-04-26 08:28:07 51°14.004 2°55.45 4.7 252 9.5 102470 43
2010-04-26 08:28:13 51°14.005 2°55.45 5.5 284 9.5 102470 43
2010-04-26 08:28:17 51°14.005 2°55.45 4.8 257 9.5 102470 41
2010-04-26 08:28:23 51°14.005 2°55.45 4.5 281 9.5 102470 41
2010-04-26 08:28:27 51°14.005 2°55.45 6.2 254 9.5 102480 43
2010-04-26 08:28:33 51°14.005 2°55.45 5.1 284 9.5 102480 43
2010-04-26 08:28:37 51°14.005 2°55.45 4.8 253 9.5 102470 41
2010-04-26 08:28:42 51°14.005 2°55.45 6.2 284 9.5 102470 41
2010-04-26 08:28:48 51°14.005 2°55.45 5.9 254 9.5 102470 40
2010-04-26 08:28:53 51°14.005 2°55.45 8.2 281 9.5 102470 40
2010-04-26 08:28:57 51°14.005 2°55.45 6.7 254 9.5 102480 42
2010-04-26 08:29:02 51°14.005 2°55.45 3.4 280 9.5 102480 42
2010-04-26 08:29:07 51°14.005 2°55.45 5.2 19 9.5 102470 43
2010-04-26 08:29:13 51°14.005 2°55.45 4.7 284 9.5 102470 43
2010-04-26 08:29:17 51°14.005 2°55.45 2.9 270 9.5 102480 41
2010-04-26 08:29:22 51°14.005 2°55.45 3.1 280 9.5 102480 41
2010-04-26 08:29:27 51°14.005 2°55.45 6.7 258 9.5 102480 44
2010-04-26 08:29:33 51°14.005 2°55.45 3.5 283 9.5 102480 44
2010-04-26 08:29:37 51°14.005 2°55.45 2.9 259 9.5 102480 43
2010-04-26 08:29:42 51°14.005 2°55.45 3.7 284 9.5 102480 43
2010-04-26 08:29:47 51°14.005 2°55.45 5.6 252 9.5 102480 42
2010-04-26 08:29:53 51°14.005 2°55.45 4.3 282 9.5 102480 42
2010-04-26 08:29:57 51°14.005 2°55.45 5.1 248 9.4 102480 43
2010-04-26 08:30:02 51°14.005 2°55.45 4.4 283 9.4 102480 43
2010-04-26 08:30:07 51°14.005 2°55.451 4.6 27 9.4 102480 40
2010-04-26 08:30:13 51°14.005 2°55.451 3.9 280 9.4 102480 40
2010-04-26 08:30:17 51°14.005 2°55.451 3.4 24 9.4 102480 39
2010-04-26 08:30:23 51°14.005 2°55.451 4.7 284 9.4 102480 39
2010-04-26 08:30:27 51°14.005 2°55.451 5.4 257 9.4 102480 41
2010-04-26 08:30:32 51°14.005 2°55.45 6.3 282 9.4 102480 41
2010-04-26 08:30:37 51°14.005 2°55.45 4.8 27 9.4 102460 42
2010-04-26 08:30:42 51°14.005 2°55.45 4.2 279 9.4 102460 42
2010-04-26 08:30:47 51°14.005 2°55.45 4.8 269 9.4 102470 42
2010-04-26 08:30:53 51°14.005 2°55.45 5.3 279 9.4 102470 42
2010-04-26 08:30:57 51°14.005 2°55.45 5.2 26 9.4 102480 43
2010-04-26 08:31:02 51°14.005 2°55.45 3.6 -999 9.4 102480 43
2010-04-26 08:31:07 51°14.005 2°55.45 8.2 250 9.4 102480 43
2010-04-26 08:31:13 51°14.005 2°55.45 7.3 285 9.4 102480 43
2010-04-26 08:31:17 51°14.005 2°55.45 3 260 9.4 102480 41
2010-04-26 08:31:22 51°14.005 2°55.45 4.8 285 9.4 102480 41
2010-04-26 08:31:27 51°14.005 2°55.451 3.9 252 9.4 102480 41
2010-04-26 08:31:33 51°14.005 2°55.451 4.4 284 9.4 102480 41
2010-04-26 08:31:37 51°14.005 2°55.451 6.5 263 9.4 102480 43
2010-04-26 08:31:42 51°14.005 2°55.45 4 280 9.4 102480 43
2010-04-26 08:31:48 51°14.005 2°55.45 4.6 259 9.3 102480 40
2010-04-26 08:31:53 51°14.005 2°55.45 7.5 283 9.3 102480 40
2010-04-26 08:31:57 51°14.005 2°55.45 3.5 21 9.3 102480 40
2010-04-26 08:32:02 51°14.005 2°55.45 3.8 283 9.3 102480 40
2010-04-26 08:32:07 51°14.005 2°55.45 7.3 255 9.3 102480 40
2010-04-26 08:32:12 51°14.005 2°55.45 5.7 280 9.3 102480 40
2010-04-26 08:32:17 51°14.005 2°55.45 7.1 253 9.3 102480 43
2010-04-26 08:32:22 51°14.005 2°55.45 5.2 284 9.3 102480 43
2010-04-26 08:32:27 51°14.005 2°55.45 5.7 22 9.3 102480 42
2010-04-26 08:32:33 51°14.005 2°55.45 4.8 284 9.3 102480 42
2010-04-26 08:32:37 51°14.005 2°55.45 3 266 9.3 102490 41
2010-04-26 08:32:42 51°14.005 2°55.45 2.3 281 9.3 102490 41
2010-04-26 08:32:47 51°14.005 2°55.45 3.3 250 9.3 102480 40
2010-04-26 08:32:53 51°14.005 2°55.45 3 285 9.3 102480 40
2010-04-26 08:32:57 51°14.005 2°55.451 4.7 255 9.3 102480 39
2010-04-26 08:33:02 51°14.005 2°55.45 7.1 284 9.3 102480 39
2010-04-26 08:33:07 51°14.005 2°55.451 3 259 9.3 102480 44
2010-04-26 08:33:13 51°14.005 2°55.45 5.2 279 9.3 102480 44
2010-04-26 08:33:17 51°14.005 2°55.451 3.7 261 9.3 102480 42
2010-04-26 08:33:22 51°14.005 2°55.45 2.6 283 9.3 102480 42
2010-04-26 08:33:27 51°14.005 2°55.45 4.9 257 9.3 102480 41